When you browse on this site, cookies collect data to enhance your experience and personalize the content and advertising you see.
Visit our Privacy Policy to learn more. By continuing to use the site, you agree to this use of cookies and data.
  • In France
  • List of Countries
  • For 7 days
  • Water Temperature
  • Weather Map
  • Weather Widgets
  • user-avatar
    Login

    Hourly Weather Bulembu

    Today, 25 May, Monday

    Time Temperature Precipitation Wind Pressure Humidity
    00:00 +10°C° 0 mm 1 mps 654 mmHg 64%
    01:00 +10°C° 0 mm 1 mps 653 mmHg 66%
    02:00 +9°C° 0 mm 2 mps 653 mmHg 69%
    03:00 +9°C° 0 mm 2 mps 653 mmHg 68%
    04:00 +8°C° 0 mm 2 mps 653 mmHg 67%
    05:00 +8°C° 0 mm 2 mps 652 mmHg 66%
    06:00 +9°C° 0 mm 2 mps 653 mmHg 62%
    07:00 +12°C° 0 mm 2 mps 653 mmHg 57%
    08:00 +13°C° 0 mm 2 mps 654 mmHg 51%
    09:00 +16°C° 0 mm 2 mps 654 mmHg 44%
    10:00 +19°C° 0 mm 2 mps 654 mmHg 37%
    11:00 +23°C° 0 mm 2 mps 654 mmHg 30%
    12:00 +22°C° 0 mm 3 mps 654 mmHg 28%
    13:00 +24°C° 0 mm 3 mps 653 mmHg 26%
    14:00 +25°C° 0 mm 4 mps 653 mmHg 25%
    15:00 +22°C° 0 mm 3 mps 652 mmHg 29%
    16:00 +20°C° 0 mm 3 mps 651 mmHg 33%
    17:00 +18°C° 0 mm 2 mps 650 mmHg 37%
    18:00 +17°C° 0 mm 2 mps 650 mmHg 40%
    19:00 +15°C° 0 mm 2 mps 650 mmHg 42%
    20:00 +14°C° 0 mm 2 mps 650 mmHg 45%
    21:00 +13°C° 0 mm 2 mps 649 mmHg 45%
    22:00 +12°C° 0 mm 2 mps 649 mmHg 46%
    23:00 +12°C° 0 mm 2 mps 649 mmHg 47%

    Tomorrow, 26 May, Tuesday

    Time Temperature Precipitation Wind Pressure Humidity
    00:00 +10°C° 0 mm 2 mps 648 mmHg 47%
    01:00 +10°C° 0 mm 2 mps 648 mmHg 47%
    02:00 +10°C° 0 mm 2 mps 647 mmHg 47%
    03:00 +9°C° 0 mm 2 mps 647 mmHg 47%
    04:00 +9°C° 0 mm 2 mps 647 mmHg 48%
    05:00 +9°C° 0 mm 2 mps 647 mmHg 48%
    06:00 +11°C° 0 mm 1 mps 648 mmHg 46%
    07:00 +12°C° 0 mm 1 mps 649 mmHg 43%
    08:00 +14°C° 0 mm 1 mps 650 mmHg 41%
    09:00 +16°C° 0 mm 1 mps 650 mmHg 35%
    10:00 +19°C° 0 mm 2 mps 651 mmHg 30%
    11:00 +21°C° 0 mm 2 mps 651 mmHg 25%
    12:00 +23°C° 0 mm 2 mps 651 mmHg 23%
    13:00 +24°C° 0 mm 3 mps 651 mmHg 21%
    14:00 +26°C° 0 mm 3 mps 651 mmHg 19%
    15:00 +23°C° 0 mm 2 mps 650 mmHg 24%
    16:00 +20°C° 0 mm 2 mps 650 mmHg 29%
    17:00 +19°C° 0 mm 1 mps 650 mmHg 34%
    18:00 +16°C° 0.4 mm 1 mps 650 mmHg 51%
    19:00 +14°C° 0.4 mm 2 mps 651 mmHg 68%
    20:00 +12°C° 0.4 mm 2 mps 651 mmHg 84%
    21:00 +10°C° 0.4 mm 2 mps 651 mmHg 85%
    22:00 +10°C° 0.4 mm 1 mps 652 mmHg 85%
    23:00 +8°C° 0.4 mm 1 mps 652 mmHg 85%

    Day after tomorrow, 27 May, Wednesday

    Time Temperature Precipitation Wind Pressure Humidity
    00:00 +8°C° 0 mm 1 mps 652 mmHg 85%
    01:00 +7°C° 0 mm 1 mps 652 mmHg 84%
    02:00 +6°C° 0 mm 1 mps 652 mmHg 84%
    03:00 +5°C° 0 mm 1 mps 652 mmHg 79%
    04:00 +4°C° 0 mm 1 mps 652 mmHg 74%
    05:00 +2°C° 0 mm 2 mps 652 mmHg 69%
    06:00 +3°C° 0 mm 2 mps 653 mmHg 65%
    07:00 +4°C° 0 mm 2 mps 653 mmHg 61%
    08:00 +4°C° 0 mm 2 mps 654 mmHg 56%
    09:00 +8°C° 0 mm 1 mps 654 mmHg 45%
    10:00 +12°C° 0 mm 1 mps 655 mmHg 33%
    11:00 +14°C° 0 mm 0 mps 656 mmHg 22%
    12:00 +16°C° 0 mm 1 mps 656 mmHg 21%
    13:00 +16°C° 0 mm 1 mps 655 mmHg 19%
    14:00 +18°C° 0 mm 1 mps 655 mmHg 18%
    15:00 +15°C° 0 mm 1 mps 655 mmHg 25%
    16:00 +13°C° 0 mm 1 mps 654 mmHg 32%
    17:00 +10°C° 0 mm 1 mps 654 mmHg 39%
    18:00 +9°C° 0 mm 1 mps 654 mmHg 44%
    19:00 +8°C° 0 mm 1 mps 654 mmHg 49%
    20:00 +5°C° 0 mm 0 mps 654 mmHg 54%
    21:00 +6°C° 0 mm 0 mps 655 mmHg 57%
    22:00 +6°C° 0 mm 0 mps 655 mmHg 61%
    23:00 +6°C° 0 mm 0 mps 655 mmHg 65%

    28 May, Thursday

    Time Temperature Precipitation Wind Pressure Humidity
    00:00 +5°C° 0 mm 0 mps 655 mmHg 68%
    01:00 +6°C° 0 mm 1 mps 655 mmHg 71%
    02:00 +6°C° 0 mm 1 mps 655 mmHg 75%
    03:00 +6°C° 0 mm 1 mps 655 mmHg 79%
    04:00 +5°C° 0 mm 1 mps 655 mmHg 83%
    05:00 +5°C° 0 mm 1 mps 654 mmHg 87%
    06:00 +6°C° 0 mm 1 mps 655 mmHg 81%
    07:00 +6°C° 0 mm 1 mps 655 mmHg 76%
    08:00 +7°C° 0 mm 1 mps 655 mmHg 70%
    09:00 +9°C° 0 mm 2 mps 656 mmHg 56%
    10:00 +13°C° 0 mm 2 mps 656 mmHg 41%
    11:00 +16°C° 0 mm 2 mps 657 mmHg 27%
    12:00 +18°C° 0 mm 2 mps 656 mmHg 24%
    13:00 +19°C° 0 mm 2 mps 656 mmHg 20%
    14:00 +21°C° 0 mm 2 mps 655 mmHg 16%
    15:00 +18°C° 0 mm 2 mps 655 mmHg 23%
    16:00 +16°C° 0 mm 2 mps 654 mmHg 30%
    17:00 +14°C° 0 mm 1 mps 654 mmHg 37%
    18:00 +13°C° 0 mm 1 mps 654 mmHg 41%
    19:00 +11°C° 0 mm 1 mps 653 mmHg 46%
    20:00 +10°C° 0 mm 1 mps 653 mmHg 51%
    21:00 +8°C° 0 mm 2 mps 653 mmHg 46%
    22:00 +8°C° 0 mm 2 mps 653 mmHg 42%
    23:00 +7°C° 0 mm 2 mps 653 mmHg 37%

    29 May, Friday

    Time Temperature Precipitation Wind Pressure Humidity
    00:00 +7°C° 0 mm 2 mps 653 mmHg 35%
    01:00 +7°C° 0 mm 2 mps 653 mmHg 32%
    02:00 +6°C° 0 mm 2 mps 652 mmHg 30%
    03:00 +6°C° 0 mm 2 mps 652 mmHg 30%
    04:00 +6°C° 0 mm 2 mps 652 mmHg 29%
    05:00 +6°C° 0 mm 2 mps 652 mmHg 29%
    06:00 +7°C° 0 mm 2 mps 653 mmHg 29%
    07:00 +8°C° 0 mm 2 mps 653 mmHg 28%
    08:00 +9°C° 0 mm 2 mps 654 mmHg 28%
    09:00 +14°C° 0 mm 2 mps 654 mmHg 24%
    10:00 +17°C° 0 mm 2 mps 655 mmHg 21%
    11:00 +20°C° 0 mm 2 mps 656 mmHg 17%
    12:00 +23°C° 0 mm 2 mps 655 mmHg 16%
    13:00 +24°C° 0 mm 1 mps 655 mmHg 15%
    14:00 +25°C° 0 mm 1 mps 655 mmHg 14%
    15:00 +23°C° 0 mm 1 mps 655 mmHg 20%
    16:00 +20°C° 0 mm 1 mps 654 mmHg 25%
    17:00 +16°C° 0 mm 1 mps 653 mmHg 30%
    18:00 +15°C° 0 mm 1 mps 654 mmHg 32%
    19:00 +13°C° 0 mm 1 mps 654 mmHg 34%
    20:00 +12°C° 0 mm 1 mps 654 mmHg 36%
    21:00 +11°C° 0 mm 1 mps 655 mmHg 36%
    22:00 +11°C° 0 mm 1 mps 655 mmHg 37%
    23:00 +10°C° 0 mm 1 mps 655 mmHg 37%

    30 May, Saturday

    Time Temperature Precipitation Wind Pressure Humidity
    00:00 +10°C° 0 mm 1 mps 655 mmHg 38%
    01:00 +9°C° 0 mm 1 mps 655 mmHg 39%
    02:00 +9°C° 0 mm 1 mps 655 mmHg 40%
    03:00 +9°C° 0 mm 1 mps 655 mmHg 41%
    04:00 +8°C° 0 mm 1 mps 655 mmHg 42%
    05:00 +8°C° 0 mm 1 mps 655 mmHg 43%
    06:00 +9°C° 0 mm 1 mps 656 mmHg 42%
    07:00 +10°C° 0 mm 1 mps 656 mmHg 41%
    08:00 +11°C° 0 mm 1 mps 657 mmHg 40%
    09:00 +14°C° 0 mm 1 mps 658 mmHg 37%
    10:00 +18°C° 0 mm 1 mps 658 mmHg 34%
    11:00 +20°C° 0 mm 1 mps 659 mmHg 31%
    12:00 +21°C° 0 mm 1 mps 658 mmHg 30%
    13:00 +21°C° 0 mm 1 mps 658 mmHg 30%
    14:00 +22°C° 0 mm 1 mps 658 mmHg 29%
    15:00 +20°C° 0 mm 1 mps 657 mmHg 36%
    16:00 +18°C° 0 mm 1 mps 657 mmHg 44%
    17:00 +15°C° 0 mm 1 mps 656 mmHg 51%
    18:00 +13°C° 0 mm 1 mps 656 mmHg 56%
    19:00 +12°C° 0 mm 1 mps 657 mmHg 61%
    20:00 +10°C° 0 mm 0 mps 657 mmHg 67%
    21:00 +10°C° 0 mm 1 mps 657 mmHg 68%
    22:00 +10°C° 0 mm 1 mps 657 mmHg 70%
    23:00 +9°C° 0 mm 1 mps 657 mmHg 71%
    Show more